Regional Weather Roundup
Issued by NWS

Home | Current Version | Previous Version | Text Only | Print | Product List | Glossary Off
Versions: 1 2 3 4 5 6 7 8 9 10 11 12 13 14 15 16 17 18 19 20 21 22 23 24 25 26 27 28 29 30 31 32 33 34 35 36 37 38 39 40 41 42 43 44 45 46 47 48 49 50

000
ASUS43 KLSX 050010
RWRMO

WEATHER SUMMARY FOR MISSOURI
NATIONAL WEATHER SERVICE SPRINGFIELD MO
700 PM CDT WED MAY 04 2016

NOTE: "FAIR" INDICATES FEW OR NO CLOUDS BELOW 12,000 FEET WITH NO
       SIGNIFICANT WEATHER AND/OR OBSTRUCTIONS TO VISIBILITY.
       CURRENT SKY AND/OR WEATHER CONDITIONS ARE NOT AVAILABLE FOR
       CHILLICOTHE AND FARMINGTON.

MOZ001>031-035>038-043-044-053-054-050100-
...NORTHERN AND WESTERN MISSOURI...

CITY           SKY/WX    TMP DP  RH WIND       PRES   REMARKS
KANSAS CTY INT SUNNY     67  39  35 N10       29.97S
6HR MIN TEMP:  67; 6HR MAX TEMP:  69;

KANSAS C DTWN  SUNNY     69  35  28 N12G21    29.95F
6HR MIN TEMP:  68; 6HR MAX TEMP:  71;

LEE`S SUMMIT   SUNNY     67  37  33 N13       29.97S
6HR MIN TEMP:  67; 6HR MAX TEMP:  70;

ST JOSEPH      SUNNY     68  35  29 N16G22    29.98S
6HR MIN TEMP:  67; 6HR MAX TEMP:  71;

CHILLICOTHE      N/A     66  37  34 VRB7      29.97R
6HR MIN TEMP:  65; 6HR MAX TEMP:  69;

KIRKSVILLE     MOSUNNY   63  34  33 NW10G20   29.93F
6HR MIN TEMP:  63; 6HR MAX TEMP:  66;


$$
MOZ066>068-077>081-088>096-101>105-050100-
...SOUTHWEST MISSOURI...

CITY           SKY/WX    TMP DP  RH WIND       PRES   REMARKS
SPRINGFIELD    SUNNY     67  38  34 N15       29.92F
6HR MIN TEMP:  67; 6HR MAX TEMP:  71;

JOPLIN         SUNNY     68  39  34 N10       29.96F
6HR MIN TEMP:  68; 6HR MAX TEMP:  72;

BRANSON        SUNNY     68  37  32 NW13G22   29.93S

$$
MOZ032>034-039>042-045>050-055>058-069>072-050100-
...CENTRAL MISSOURI...

CITY           SKY/WX    TMP DP  RH WIND       PRES   REMARKS
COLUMBIA       SUNNY     65  36  34 N15       29.91S
6HR MIN TEMP:  65; 6HR MAX TEMP:  69;

JEFFERSON CITY SUNNY     67  33  28 NW12G20   29.90S
6HR MIN TEMP:  67; 6HR MAX TEMP:  70;

ROLLA          SUNNY     63  35  35 N10       29.88S
6HR MIN TEMP:  63; 6HR MAX TEMP:  67;

SEDALIA        SUNNY     67  36  31 N18       29.95R
6HR MIN TEMP:  67; 6HR MAX TEMP:  71;

WHITEMAN AFB   SUNNY     66  35  31 N15       29.93S
WARRENSBURG    SUNNY     66  34  30 NW12      29.95S
OSAGE BEACH    SUNNY     66  36  32 N8        29.92S

$$
MOZ051-052-059>065-050100-
...EAST CENTRAL MISSOURI...

CITY           SKY/WX    TMP DP  RH WIND       PRES   REMARKS
ST LOUIS INTL  PTCLDY    64  34  32 N15G23    29.87R
6HR MIN TEMP:  63; 6HR MAX TEMP:  70;

SPIRIT OF STL  PTCLDY    64  35  34 N13       29.87R
6HR MIN TEMP:  63; 6HR MAX TEMP:  69;

ST CHARLES     PTCLDY    63  36  36 NW13G23   29.87R
6HR MIN TEMP:  62; 6HR MAX TEMP:  68;


$$
MOZ072>076-082>087-097>100-106>115-050100-
...SOUTH CENTRAL AND SOUTHEAST MISSOURI...

CITY           SKY/WX    TMP DP  RH WIND       PRES   REMARKS
CAPE GIRARDEAU CLEAR     66  39  37 N16G23    29.82R
6HR MIN TEMP:  66; 6HR MAX TEMP:  72;

FARMINGTON     PTCLDY    64  36  35 NW13G22   29.86R
6HR MIN TEMP:  64; 6HR MAX TEMP:  69;

POPLAR BLUFF   CLEAR     69  39  33 N13       29.81R
6HR MIN TEMP:  69; 6HR MAX TEMP:  75;

WEST PLAINS    SUNNY     67  33  28 NW8G18    29.89R
6HR MIN TEMP:  67; 6HR MAX TEMP:  73;


$$




USA.gov is the U.S. government's official web portal to all federal, state and local government web resources and services.